Weather History for Wenatchee, WA

Change the Weather History Date:

Thursday, October 4, 2012

  Actual Average Record
Temperature  
Mean Temperature 44 °F 50 °F  
Max Temperature 57 °F 64 °F 81 °F (2003)
Min Temperature 31 °F 37 °F 34 °F (1981)
Degree Days  
Heating Degree Days 21 15  
Month to date heating degree days 58 56  
Since 1 July heating degree days 287 412  
Cooling Degree Days 0 0  
Month to date cooling degree days 0 0  
Year to date cooling degree days 294 249  
Moisture  
Dew Point 23 °F    
Average Humidity 38    
Maximum Humidity 57    
Minimum Humidity 18    
Precipitation  
Precipitation 0.00 in 0.03 in 0.11 in (1996)
Month to date precipitation 0.00 0.10  
Year to date precipitation 15.20 11.15  
Snow  
Snow 0.00 in 0.00 in - ()
Month to date snowfall 0.0 0.0  
Since 1 July snowfall 0.0 0.0  
Since 1 September snowfall 0.0 0.0  
Snow Depth 0.00 in    
Sea Level Pressure  
Sea Level Pressure 30.33 in    
Wind  
Wind Speed 2 mph (West)    
Max Wind Speed 8 mph    
Max Gust Speed -    
Visibility 9 miles    
Events      
T = Trace of Precipitation, MM = Missing Value Source: NWS Daily Summary

Daily Weather History Graph

Daily Weather History Graph

Search for Another Location

Airport:

Trip Planner

Search our weather history database for the weather conditions in past years. The results will help you decide how hot, cold, wet, or windy it might be!

Date:

Astronomy

Oct. 04, 2012 Rise Set
Actual Time 7:04 AM PDT 6:33 PM PDT
Civil Twilight 6:34 AM PDT 7:03 PM PDT
Nautical Twilight 5:58 AM PDT 7:39 PM PDT
Astronomical Twilight 5:22 AM PDT 8:15 PM PDT
Moon 8:53 PM PDT (10/4) 11:45 AM PDT (10/4)
Length of Visible Light 12h 29m
Length of Day
11h 28m
Waning Gibbous, 81% of the Moon is Illuminated
Oct 4
Waning Gibbous
Oct 8
Last Quarter
Oct 15
New
Oct 21
First Quarter
Oct 29
Full

Hourly Weather History & Observations

Time (PDT) Temp. Windchill Dew Point Humidity Pressure Visibility Wind Dir Wind Speed Gust Speed Precip Events Conditions
12:55 AM 44.1 °F - 25.0 °F 47% 30.34 in 10.0 mi Calm Calm - N/A   Clear
1:55 AM 45.0 °F 43.5 °F 23.0 °F 42% 30.34 in 9.0 mi WNW 3.5 mph - N/A   Clear
2:55 AM 42.1 °F - 24.1 °F 49% 30.34 in 10.0 mi Calm Calm - N/A   Clear
3:55 AM 42.1 °F 40.2 °F 24.1 °F 49% 30.34 in 10.0 mi NW 3.5 mph - N/A   Clear
4:55 AM 39.9 °F 37.8 °F 24.1 °F 53% 30.34 in 10.0 mi WNW 3.5 mph - N/A   Clear
5:55 AM 39.0 °F 36.8 °F 24.1 °F 55% 30.35 in 9.0 mi NW 3.5 mph - N/A   Clear
6:55 AM 37.0 °F - 23.0 °F 57% 30.36 in 9.0 mi Calm Calm - N/A   Clear
7:55 AM 37.9 °F - 24.1 °F 57% 30.37 in 7.0 mi Calm Calm - N/A   Clear
8:55 AM 41.0 °F 39.0 °F 26.1 °F 55% 30.37 in 6.0 mi West 3.5 mph - N/A   Haze
9:55 AM 45.0 °F - 27.0 °F 49% 30.38 in 6.0 mi Calm Calm - N/A   Haze
10:55 AM 48.9 °F - 26.1 °F 41% 30.38 in 6.0 mi West 3.5 mph - N/A   Haze
11:55 AM 54.0 °F - 26.1 °F 34% 30.36 in 7.0 mi Calm Calm - N/A   Clear
12:55 PM 57.9 °F - 26.1 °F 30% 30.34 in 10.0 mi Variable 4.6 mph - N/A   Clear
1:55 PM 60.1 °F - 23.0 °F 24% 30.32 in 10.0 mi Calm Calm - N/A   Clear
2:55 PM 62.1 °F - 21.0 °F 21% 30.30 in 10.0 mi WSW 5.8 mph - N/A   Clear
3:55 PM 63.0 °F - 19.0 °F 18% 30.28 in 10.0 mi SW 5.8 mph - N/A   Clear
4:55 PM 63.0 °F - 19.0 °F 18% 30.27 in 10.0 mi West 5.8 mph - N/A   Clear
5:55 PM 61.0 °F - 21.9 °F 22% 30.27 in 10.0 mi SW 4.6 mph - N/A   Clear
6:55 PM 55.9 °F - 23.0 °F 28% 30.28 in 10.0 mi WSW 8.1 mph - N/A   Clear
7:55 PM 54.0 °F - 21.9 °F 29% 30.29 in 9.0 mi West 3.5 mph - N/A   Clear
8:55 PM 53.1 °F - 21.9 °F 30% 30.29 in 10.0 mi Calm Calm - N/A   Clear
9:55 PM 48.9 °F - 21.9 °F 35% 30.30 in 10.0 mi NW 3.5 mph - N/A   Clear
10:55 PM 46.9 °F - 19.9 °F 34% 30.32 in 10.0 mi NW 5.8 mph - N/A   Clear
11:55 PM 45.0 °F 43.5 °F 21.0 °F 39% 30.33 in 10.0 mi NW 3.5 mph - N/A   Clear